Regional Weather Roundup
Issued by NWS

Home | Current Version | Previous Version | Graphics & Text | Print | Product List | Glossary On
Versions: 1 2 3 4 5 6 7 8 9 10 11 12 13 14 15 16 17 18 19 20 21 22 23 24 25 26 27 28 29 30 31 32 33 34 35 36 37 38 39 40 41 42 43 44 45 46 47 48 49 50
005
ASUS43 KFSD 032210
RWRSD

WEATHER ROUNDUP FOR SOUTH DAKOTA
NATIONAL WEATHER SERVICE SIOUX FALLS SD
400 PM CST SAT DEC 03 2016

NOTE: "FAIR" INDICATES FEW OR NO CLOUDS BELOW 12,000 FEET WITH NO
SIGNIFICANT WEATHER AND/OR OBSTRUCTIONS TO VISIBILITY.


SDZ001>005-009-010-012>017-032300-
NORTHWEST AND NORTH CENTRAL SOUTH DAKOTA

CITY           SKY/WX    TMP DP  RH WIND       PRES   REMARKS
BUFFALO          N/A     38  27  64 W13       29.77R
FAITH            N/A     29  26  89 SW7       29.87R WCI  22
MOBRIDGE       PTCLDY    36  28  73 SW8       29.86F
$$

SDZ012>016-024>037-041>051-057-063-072>074-032300-
SOUTHWEST AND SOUTH CENTRAL SOUTH DAKOTA

CITY           SKY/WX    TMP DP  RH WIND       PRES   REMARKS
RAPID CTY ARPT CLOUDY    41  23  48 NW3       29.88S
PIERRE         CLEAR     37  27  67 SW7       29.89F
CUSTER         CLOUDY    30  18  60 W9        29.87R WCI  22
ELLSWORTH AFB  CLOUDY    40  24  52 NW7       29.87R
PHILIP         CLEAR     36  23  59 W6        29.91R
PINE RIDGE     SUNNY     38  19  46 W12       29.91R
SPEARFISH      FAIR      37  23  56 W14G21    29.87R
WINNER         FAIR      46  24  42 W8        29.91S
$$

SDZ004>011-016>023-039-040-032300-
NORTHEAST SOUTH DAKOTA

CITY           SKY/WX    TMP DP  RH WIND       PRES   REMARKS
ABERDEEN       CLOUDY    35  32  88 S16       29.98S WCI  25
WATERTOWN      LGT SNOW  32  31  96 S13       30.02S FOG     WCI  22
BROOKINGS      LGT SNOW  33  31  92 S16       30.05F FOG     WCI  23
SISSETON         N/A     33  29  85 S15       30.04S WCI  23
$$

SDZ017-020-022-023-036>040-048>070-032300-
SOUTHEAST SOUTH DAKOTA

CITY           SKY/WX    TMP DP  RH WIND       PRES   REMARKS
SIOUX FALLS    LGT SNOW  35  33  92 S16G22    30.09F FOG     WCI  25
HURON          MOCLDY    36  33  89 SE17G23   30.00S
CHAMBERLAIN    CLEAR     38  34  84 SE3       29.93S
MITCHELL       CLOUDY    37  34  89 S18       30.01F
YANKTON        CLOUDY    37  30  75 S15       30.08F
$$

ABBREVIATIONS USED IN REMARKS
   TC - TEMPERATURE IN CELSIUS
  WCI - WIND CHILL INDEX
   HX - HEAT INDEX
  VSB - VISIBILITY





USA.gov is the U.S. government's official web portal to all federal, state and local government web resources and services.